New Philadelphia, OH

1:28 PM EST on November 20, 2017 (GMT -0500)
Clever

Weather History for KPHD - February, 2015

Change the Weather History Date:

Sunday, February 1, 2015

  Actual Average Record
Temperature  
Mean Temperature 33 °F 30 °F  
Max Temperature 39 °F 39 °F 68 °F (2002)
Min Temperature 27 °F 21 °F -7 °F (2004)
Degree Days  
Heating Degree Days 32 35  
Month to date heating degree days 32 35  
Since 1 July heating degree days 3361 3307  
Cooling Degree Days 0 0  
Month to date cooling degree days 0 0  
Year to date cooling degree days 0 0  
Moisture  
Dew Point 29 °F    
Average Humidity 82    
Maximum Humidity 100    
Minimum Humidity 63    
Precipitation  
Precipitation 0.48 in 0.07 in 1.28 in (1982)
Month to date precipitation 0.48 0.07  
Year to date precipitation 2.28 2.67  
Sea Level Pressure  
Sea Level Pressure 30.02 in    
Wind  
Wind Speed 5 mph (SE)    
Max Wind Speed 13 mph    
Max Gust Speed 19 mph    
Visibility 3 miles    
Events Rain , Snow    
T = Trace of Precipitation, MM = Missing Value Source: NWS Daily Summary

Daily Weather History Graph

Daily Weather History Graph

Search for Another Location

Airport or City:

Trip Planner

Search our weather history database for the weather conditions in past years. The results will help you decide how hot, cold, wet, or windy it might be!

Date:

Astronomy

Feb. 01, 2015 Rise Set
Actual Time 7:35 AM EST 5:43 PM EST
Civil Twilight 7:06 AM EST 6:12 PM EST
Nautical Twilight 6:33 AM EST 6:45 PM EST
Astronomical Twilight 6:01 AM EST 7:17 PM EST
Moon 4:00 PM EST (2/1) 5:42 AM EST (2/1)
Length of Visible Light 11h 05m
Length of Day
10h 08m
Waxing Gibbous, 95% of the Moon is Illuminated
Feb 1
Waxing Gibbous
Feb 3
Full
Feb 11
Last Quarter
Feb 18
New
Feb 25
First Quarter

Hourly Weather History & Observations

Time (EST) Temp. Windchill Dew Point Humidity Pressure Visibility Wind Dir Wind Speed Gust Speed Precip Events Conditions
12:53 AM 28.0 °F 22.8 °F 18.0 °F 66% 30.23 in 10.0 mi SE 4.6 mph - N/A   Overcast
1:53 AM 28.0 °F 24.2 °F 19.9 °F 72% 30.22 in 10.0 mi ESE 3.5 mph - N/A   Overcast
2:50 AM 30.2 °F 25.4 °F 23.0 °F 75% 30.20 in 2.5 mi SW 4.6 mph - 0.00 in Snow Light Snow
2:53 AM 28.9 °F 23.9 °F 23.0 °F 78% 30.23 in 2.0 mi SW 4.6 mph - 0.00 in Snow Light Snow
3:03 AM 28.9 °F - 24.1 °F 82% 30.20 in 1.8 mi Calm Calm - 0.00 in Snow Light Snow
3:10 AM 28.9 °F - 24.1 °F 82% 30.20 in 2.0 mi Calm Calm - 0.00 in Snow Light Snow
3:25 AM 28.9 °F 25.2 °F 25.0 °F 85% 30.20 in 2.0 mi SSW 3.5 mph - 0.00 in Snow Light Snow
3:53 AM 28.0 °F 24.2 °F 25.0 °F 88% 30.22 in 2.0 mi SE 3.5 mph - 0.00 in Snow Light Snow
4:08 AM 28.0 °F 24.2 °F 25.0 °F 88% 30.19 in 1.8 mi SE 3.5 mph - 0.00 in Snow Light Snow
4:48 AM 28.4 °F 24.6 °F 26.6 °F 93% 30.18 in 1.0 mi SE 3.5 mph - 0.02 in Snow Light Snow
4:53 AM 28.0 °F 22.8 °F 26.1 °F 92% 30.21 in 1.0 mi SE 4.6 mph - 0.02 in Snow Light Snow
5:07 AM 28.0 °F 24.2 °F 26.1 °F 92% 30.18 in 1.2 mi SE 3.5 mph - 0.00 in Snow Light Snow
5:53 AM 28.9 °F 23.9 °F 26.1 °F 89% 30.21 in 1.0 mi SE 4.6 mph - 0.02 in Snow Light Snow
6:08 AM 28.9 °F 25.2 °F 26.1 °F 89% 30.18 in 1.2 mi SE 3.5 mph - 0.00 in Snow Light Snow
6:53 AM 28.9 °F - 27.0 °F 92% 30.21 in 1.5 mi Calm Calm - 0.01 in Snow Light Snow
7:15 AM 28.9 °F - 26.1 °F 89% 30.17 in 1.0 mi Calm Calm - 0.01 in Snow Light Snow
7:38 AM 28.9 °F 23.9 °F 26.1 °F 89% 30.16 in 1.8 mi SE 4.6 mph - 0.01 in Snow Light Snow
7:45 AM 28.9 °F 23.9 °F 26.1 °F 89% 30.16 in 2.5 mi SE 4.6 mph - 0.01 in Snow Light Snow
7:53 AM 28.9 °F 25.2 °F 26.1 °F 89% 30.19 in 2.5 mi SE 3.5 mph - 0.01 in   Overcast
8:06 AM 28.9 °F 25.2 °F 27.0 °F 92% 30.17 in 3.0 mi Variable 3.5 mph - N/A   Overcast
8:17 AM 28.9 °F 25.2 °F 27.0 °F 92% 30.17 in 2.5 mi SSE 3.5 mph - 0.00 in Snow Light Snow
8:39 AM 28.9 °F 23.9 °F 27.0 °F 92% 30.17 in 2.5 mi SSE 4.6 mph - 0.00 in Snow Light Snow
8:49 AM 28.4 °F 24.6 °F 26.6 °F 93% 30.16 in 1.5 mi ESE 3.5 mph - 0.00 in Snow Light Snow
8:53 AM 28.9 °F 23.9 °F 27.0 °F 92% 30.19 in 1.5 mi SE 4.6 mph - 0.00 in Snow Light Snow
9:24 AM 30.0 °F 24.1 °F 27.0 °F 88% 30.15 in 2.0 mi SE 5.8 mph - 0.01 in   Overcast
9:40 AM 30.0 °F 24.1 °F 27.0 °F 88% 30.14 in 4.0 mi SE 5.8 mph - 0.01 in   Overcast
9:51 AM 30.2 °F 24.3 °F 26.6 °F 86% 30.14 in 3.0 mi SE 5.8 mph - 0.01 in Snow Light Snow
9:53 AM 30.0 °F 25.2 °F 27.0 °F 88% 30.17 in 3.0 mi SE 4.6 mph - 0.01 in Snow Light Snow
10:01 AM 30.0 °F 25.2 °F 28.0 °F 92% 30.13 in 2.0 mi SE 4.6 mph - 0.00 in Snow Light Snow
10:09 AM 30.9 °F - 28.0 °F 89% 30.12 in 1.5 mi Calm Calm - 0.00 in Snow Light Snow
10:27 AM 30.9 °F 25.2 °F 28.0 °F 89% 30.11 in 1.0 mi SE 5.8 mph - 0.00 in Snow Light Snow
10:34 AM 30.9 °F 25.2 °F 28.0 °F 89% 30.11 in 1.2 mi SE 5.8 mph - 0.00 in Snow Light Snow
10:53 AM 30.9 °F 26.2 °F 28.0 °F 89% 30.13 in 1.2 mi SE 4.6 mph - 0.00 in Snow Light Snow
11:07 AM 32.0 °F 26.4 °F 28.0 °F 85% 30.09 in 1.0 mi SE 5.8 mph - 0.00 in Snow Light Snow
11:14 AM 32.0 °F 26.4 °F 28.9 °F 88% 30.08 in 0.8 mi SE 5.8 mph - 0.00 in Snow Light Snow
11:38 AM 32.0 °F 25.6 °F 28.9 °F 88% 30.06 in 0.8 mi SE 6.9 mph - 0.02 in Snow Light Snow
11:53 AM 32.0 °F 26.4 °F 28.9 °F 88% 30.08 in 0.8 mi SE 5.8 mph - 0.02 in Snow Light Snow
12:11 PM 32.0 °F 24.8 °F 28.9 °F 88% 30.02 in 0.8 mi ESE 8.1 mph - 0.01 in Snow Light Snow
12:20 PM 32.0 °F 24.2 °F 28.9 °F 88% 30.00 in 0.8 mi ESE 9.2 mph - 0.01 in Snow Light Snow
12:26 PM 32.0 °F 24.8 °F 28.9 °F 88% 29.99 in 1.2 mi ESE 8.1 mph - 0.01 in Snow Light Snow
12:36 PM 32.0 °F 23.6 °F 28.9 °F 88% 29.97 in 2.5 mi ESE 10.4 mph - 0.01 in Snow Light Snow
1:25 PM 33.1 °F 28.7 °F 30.0 °F 89% 29.94 in 10.0 mi SE 4.6 mph - 0.01 in   Overcast
1:53 PM 34.0 °F 28.0 °F 30.0 °F 85% 29.95 in 10.0 mi SE 6.9 mph - 0.01 in   Overcast
2:53 PM 35.1 °F 28.6 °F 30.9 °F 85% 29.92 in 10.0 mi SE 8.1 mph - N/A   Overcast
3:20 PM 35.1 °F 31.0 °F 30.9 °F 85% 29.86 in 10.0 mi East 4.6 mph - 0.00 in   Overcast
3:53 PM 36.0 °F 33.3 °F 32.0 °F 86% 29.86 in 8.0 mi SSE 3.5 mph - 0.00 in Rain Light Rain
4:53 PM 35.1 °F 30.1 °F 32.0 °F 89% 29.82 in 5.0 mi SE 5.8 mph - 0.02 in Rain Light Rain
5:53 PM 36.0 °F 29.6 °F 33.1 °F 89% 29.77 in 3.0 mi SE 8.1 mph - 0.03 in Rain Light Rain
6:19 PM 36.0 °F 28.5 °F 33.1 °F 89% 29.72 in 7.0 mi SE 10.4 mph - 0.02 in Rain Light Rain
6:46 PM 36.0 °F 28.5 °F 34.0 °F 93% 29.70 in 3.0 mi SE 10.4 mph - 0.04 in Rain Light Rain
6:53 PM 36.0 °F 29.0 °F 34.0 °F 93% 29.72 in 4.0 mi SSE 9.2 mph 18.4 mph 0.04 in Rain Light Rain
7:53 PM 36.0 °F 29.6 °F 34.0 °F 93% 29.65 in 4.0 mi SE 8.1 mph - 0.04 in Rain Light Rain
8:53 PM 37.0 °F 34.5 °F 35.1 °F 93% 29.62 in 4.0 mi SE 3.5 mph - 0.08 in Rain Light Rain
9:15 PM 37.0 °F 34.5 °F 35.1 °F 93% 29.57 in 5.0 mi SE 3.5 mph - 0.03 in Rain Light Rain
9:53 PM 37.9 °F 35.5 °F 36.0 °F 93% 29.57 in 4.0 mi SSE 3.5 mph - 0.08 in Rain Light Rain
10:45 PM 37.9 °F 34.4 °F 37.0 °F 97% 29.51 in 5.0 mi SE 4.6 mph - 0.06 in Rain Light Rain
10:53 PM 37.9 °F 35.5 °F 37.0 °F 97% 29.53 in 5.0 mi SE 3.5 mph - 0.06 in Rain Light Rain
11:53 PM 39.0 °F 36.8 °F 37.0 °F 93% 29.50 in 2.0 mi SSE 3.5 mph - 0.02 in Rain Light Rain